Regional Weather Roundup
Issued by NWS

Home | Current Version | Previous Version | Graphics & Text | Print | Product List | Glossary On
Versions: 1 2 3 4 5 6 7 8 9 10 11 12 13 14 15 16 17 18 19 20 21 22 23 24 25 26 27 28 29 30 31 32 33 34 35 36 37 38 39 40 41 42 43 44 45 46 47 48 49 50
000
ASUS45 KTFX 180219
RWRMT
MONTANA HOURLY WEATHER ROUNDUP
NATIONAL WEATHER SERVICE GREAT FALLS MT
819 PM MDT THU APR 17 2014

NOTE: "FAIR" INDICATES FEW OR NO CLOUDS BELOW 12000 FEET WITH NO
SIGNIFICANT WEATHER AND/OR OBSTRUCTIONS TO VISIBILITY.

* THESE STATIONS ARE NOT UNDER NWS QUALITY CONTROL. THEY DO NOT
   REPORT WEATHER SUCH AS PRECIPITATION OR FOG.

MTZ001>007-043-180300-
WEST OF THE DIVIDE
CITY           SKY/WX    TMP DP  RH WIND       PRES   REMARKS
KALISPELL      LGT RAIN  46  43  89 S8        29.74F
MISSOULA       LGT RAIN  46  45  96 NW12      29.77S
BUTTE          CLOUDY    54  28  37 SW13G21   29.77R
MULLAN PASS    LGT SNOW  34  32  92 VRB5      29.75F VSB M1/4 WCI  29
* ESSEX        N/A       39  38  96 N/A        N/A
* LINCOLN      N/A       50  36  59 NW3        N/A
* LOOKOUT PASS N/A       38  37  96 N/A        N/A
* POLSON       N/A       45  44  96 S1         N/A
* SEELEY LAKE  N/A       45  40  83 NW3        N/A
* THOMP F APT  CLOUDY    52  20  28 S14G23     N/A
$$

MTZ008-052>055-180300-
SOUTHWEST MONTANA
CITY           SKY/WX    TMP DP  RH WIND       PRES   REMARKS
BOZEMAN        MOCLDY    54  30  40 SE9       29.75F
DILLON         CLOUDY    59  21  23 S14       29.74F
W YELLOWSTONE  N/A       45  23  42 SW4G12     N/A
* THREE FORKS  MOCLDY    61  28  29 S8         N/A
* BOULDER HILL N/A       53  28  38 SW21G30    N/A
* MONIDA PASS  N/A       51  20  29 S19G31     N/A
* RAYNOLDS PAS N/A       43  24  47 SE22       N/A
* WHITEHALL    N/A       61  26  26 SW7G17     N/A
* WISE RIVER   N/A       54  29  38 NW7G19     N/A
$$

MTZ009>010-012-014-046-048-049-054-180300-
EAST SLOPES AND CENTRAL MONTANA
CITY           SKY/WX    TMP DP  RH WIND       PRES   REMARKS
CUT BANK       MOCLDY    48  36  63 SW15      29.70S
GREAT FALLS    CLOUDY    54  37  53 W10       29.71F
HELENA         CLOUDY    57  36  46 NE6       29.71S
MALMSTROM AFB  LGT RAIN  54  37  53 SW7       29.71R
* CONRAD       CLOUDY    55  36  49 N/A        N/A
* DEARBORN     N/A       59  34  39 S4         N/A
* EAST GLACIER N/A       41  35  79 W22G28     N/A
* MONARCH      N/A       48  24  39 S6         N/A
* PENDROY      N/A       52  28  40 W4         N/A
* ROGERS PASS  N/A       45  33  63 SE3G8      N/A
* SAINT MARY   N/A       44  34  68 S7G14      N/A
* SWEET GRASS  N/A       48  37  66 S11        N/A
* WHITE SULPH  N/A       52  27  38 S10G17     N/A
$$

MTZ011-013-016-021-035-040-045-047-050-051-180300-
NORTH CENTRAL MONTANA
CITY           SKY/WX    TMP DP  RH WIND       PRES   REMARKS
HAVRE          CLOUDY    54  36  51 NE6       29.74S
LEWISTOWN      CLOUDY    54  32  43 SW8       29.76F
* CHINOOK      CLOUDY    54  39  57 NE3       29.76R
* FORT BENTON  CLOUDY    57  34  42 CALM      29.73F
* CHESTER      N/A       51  34  52 SE4G9      N/A
* DENTON       N/A       52  31  45 NE6        N/A
* GEYSER       N/A       49  31  50 SE8G14     N/A
* JUDITH GAP   N/A       49  27  43 SE14       N/A
* LOMA         N/A       55  33  43 E8         N/A
$$

MTZ017>020-022>027-061-062-180300-
NORTHEAST MONTANA
CITY           SKY/WX    TMP DP  RH WIND       PRES   REMARKS
GLASGOW        CLOUDY    52  34  50 E18       29.82F
GLENDIVE       MOCLDY    48  30  50 E13       29.92S
JORDAN         CLOUDY    55  34  45 SW12      29.80F
SIDNEY         MOCLDY    45  28  51 SE9       29.99S
WOLF POINT     CLOUDY    48  30  50 E15       29.90F
* BEAVER HILL  N/A       46  30  54 E20        N/A
* CIRCLE       N/A       54  36  51 SE10       N/A
* LINDSAY DVD  N/A       47  33  58 E14        N/A
* NAVAJO       N/A       41  28  60 SE18       N/A
* SACO         N/A       54  31  42 E14G21     N/A
$$

MTZ028>042-056>058-180300-
SOUTHCENTRAL AND SOUTHEAST MONTANA
CITY           SKY/WX    TMP DP  RH WIND       PRES   REMARKS
BAKER          PTCLDY    46  30  54 SE17      29.92S
BILLINGS       CLOUDY    59  28  31 E9        29.78F
LIVINGSTON     CLOUDY    55  25  31 W8        29.76F
MILES CITY     CLOUDY    55  30  39 E6        29.83F
* LAUREL APT   MOCLDY    59  28  31 N/A        N/A
* ROUNDUP APT  CLOUDY    55  34  45 N/A        N/A
* HYSHAM       N/A       55  24  30 SE2        N/A
* LAME DEER    N/A       53  26  35 SE4        N/A
* REED POINT   N/A       57  29  34 SE1        N/A
* ROSCOE HILL  N/A       53  13  20 S8G17      N/A
$$

REGIONAL REPORTS...DAKOTAS
CITY           SKY/WX    TMP DP  RH WIND       PRES   REMARKS
WILLISTON      CLOUDY    41  27  58 SE8       30.02F
DICKINSON      MOCLDY    39  25  57 SE14      30.00S WCI  31
CROSBY         CLOUDY    37  27  67 E13       30.06S WCI  29
TIOGA          CLEAR     36  27  70 SE10      30.08S WCI  29
WATFORD CITY   CLEAR     37  27  67 SE12      30.00F WCI  29
BISMARCK       CLOUDY    43  25  49 S9        30.14S
GRAND FORKS    MOCLDY    34  19  54 N5        30.30R WCI  29
FARGO          PTCLDY    37  18  46 NE6       30.28R WCI  32
BUFFALO SD     PTCLDY    45  32  60 SE14      29.90R
RAPID CITY     MOCLDY    46  36  68 SE14      29.96S
$$

REGIONAL REPORTS...WYOMING/IDAHO/WASHINGTON
CITY           SKY/WX    TMP DP  RH WIND       PRES   REMARKS
GILLETTE       CLEAR     50  36  59 S12       29.87S
SHERIDAN       PTCLDY    52  32  47 SE6       29.82F
CODY           CLOUDY    55  23  29 SW13G18   29.84R
YELLOWSTONE LA PTCLDY    39  21  48 W3        29.98S
SALMON         CLOUDY    57  28  33 NW5       29.68F
MULLAN PASS    LGT SNOW  34  32  92 VRB5      29.75S VSB M1/4 WCI  29
SAND POINT     N/A       46  46 100 CALM      29.75F
SPOKANE        LGT RAIN  46  45  96 SW12      29.75F
$$

REGIONAL REPORTS...ALBERTA
CITY           SKY/WX    TMP DP  RH WIND       PRES   REMARKS
CALGARY        MOCLDY    39  36  89 NE10      29.67F WCI  32
LETHBRIDGE     CLOUDY    52  37  57 SW10      29.66S
MEDICINE HAT   CLOUDY    50  39  66 NE6       29.70F
EDMONTON       LGT SNOW  30  27  89 E10       29.82S VSB 1 1/2 WCI  21
WATERTON GATE  N/A       41  36  82 SW10       N/A
CARDSTON       N/A       48  36  63 SW6        N/A
MILK RIVER     N/A       48  36  63 S12        N/A
$$

REGIONAL REPORTS...SASKATCHEWAN
CITY           SKY/WX    TMP DP  RH WIND       PRES   REMARKS
SWIFT CURRENT  LGT RAIN  45  34  65 SE10      29.81R
REGINA         MOCLDY    36  23  59 E22G29    30.02F WCI  25
VAL MARIE      N/A       50  32  50 S13G18     N/A
ASSINIBOIA     N/A       41  28  60 SE15G21    N/A
CORONACH       N/A       41  28  60 SE18       N/A

$$




USA.gov is the U.S. government's official web portal to all federal, state and local government web resources and services.